This is the latest recevied weather packets stored in our database for station/object KQ7A. If no packets are shown the sender has not sent any weather packets the latest 10 day(s).
| Time | Temp. | Humidity | Pressure | Rain* | Wind** | Luminosity | Snow |
|---|---|---|---|---|---|---|---|
| 1778017268 | 16.67° C | 55% | 1014.8 hPa | 0 mm | - | 702 W/m² | - |
| 1778016966 | 16.11° C | 61% | 1015 hPa | 0 mm | - | 700 W/m² | - |
| 1778016662 | 16.11° C | 55% | 1015.2 hPa | 0 mm | - | 708 W/m² | - |
| 1778016358 | 16.11° C | 62% | 1015.2 hPa | 0 mm | - | 714 W/m² | - |
| 1778016056 | 15.56° C | 60% | 1015.2 hPa | 0 mm | - | 711 W/m² | - |
| 1778015753 | 15.56° C | 59% | 1015.3 hPa | 0 mm | - | 715 W/m² | - |
| 1778015450 | 15° C | 68% | 1015.5 hPa | 0 mm | - | 726 W/m² | - |
| 1778015146 | 14.44° C | 62% | 1015.4 hPa | 0 mm | - | 743 W/m² | - |
| 1778014844 | 15.56° C | 62% | 1015.4 hPa | 0 mm | - | 366 W/m² | - |
| 1778014541 | 15.56° C | 61% | 1015.3 hPa | 0 mm | - | 787 W/m² | - |
| 1778014239 | 15° C | 71% | 1015.4 hPa | 0 mm | - | 760 W/m² | - |
| 1778013936 | 15° C | 60% | 1015.4 hPa | 0 mm | - | 610 W/m² | - |
| 1778013633 | 14.44° C | 68% | 1015.6 hPa | 0 mm | - | 196 W/m² | - |
| 1778013330 | 13.89° C | 68% | 1015.6 hPa | 0 mm | - | 790 W/m² | - |
| 1778013027 | 13.89° C | 67% | 1015.9 hPa | 0 mm | - | 527 W/m² | - |
| 1778012723 | 13.89° C | 67% | 1015.6 hPa | 0 mm | - | 818 W/m² | - |
| 1778012419 | 13.89° C | 72% | 1015.5 hPa | 0 mm | - | 727 W/m² | - |
| 1778012116 | 12.78° C | 72% | 1015.8 hPa | 0 mm | - | 986 W/m² | - |
| 1778011813 | 13.33° C | 75% | 1015.9 hPa | 0 mm | - | 553 W/m² | - |
| 1778011511 | 13.33° C | 72% | 1015.9 hPa | 0 mm | - | 553 W/m² | - |
| 1778011208 | 12.78° C | 75% | 1016.1 hPa | 0 mm | - | 772 W/m² | - |
| 1778010904 | 12.22° C | 76% | 1016 hPa | 0 mm | - | 566 W/m² | - |
| 1778010601 | 12.22° C | 75% | 1016 hPa | 0 mm | - | 483 W/m² | - |
| 1778010299 | 11.67° C | 76% | 1015.8 hPa | 0 mm | - | 1160 W/m² | - |
| 1778009999 | 11.67° C | 78% | 1015.9 hPa | 0 mm | - | 520 W/m² | - |
* Rain latest hour (hover to see other rain measurements)
** Current wind speed in m/s (hover to see current wind gust speed)